GLD1620 SBPA-SBKP

Flight info

Callsign GLD1620
Flight time N/A
Altitude 39000
Route VASE2B PENSO UZ132 EDRAT VERM1A
Aircraft A20N/M-SDE2E3FGHIRWXY/LB1

Departure

Time 2026-04-27 02:54
Airport Porto Alegre-Salgado Filho International Airport (SBPA)

Arrival

Time N/A
Airport Viracopos International Airport (SBKP)
Time Latitude Longitude Altitude Speed Heading
2026-04-27 02:42 -29.99134 -51.17436 19 ft 0 kts
2026-04-27 02:46 -29.99150 -51.17437 20 ft 4 kts 10°
2026-04-27 02:46 -29.99173 -51.17447 22 ft 4 kts 52°
2026-04-27 02:47 -29.99180 -51.17464 20 ft 0 kts 91°
2026-04-27 02:49 -29.99180 -51.17441 21 ft 7 kts 91°
2026-04-27 02:49 -29.99183 -51.17297 19 ft 22 kts 91°
2026-04-27 02:50 -29.99221 -51.17162 19 ft 10 kts 154°
2026-04-27 02:50 -29.99262 -51.17171 19 ft 5 kts 184°
2026-04-27 02:50 -29.99271 -51.17140 19 ft 10 kts 89°
2026-04-27 02:50 -29.99272 -51.17023 19 ft 19 kts 90°
2026-04-27 02:51 -29.99272 -51.16842 19 ft 24 kts 92°
2026-04-27 02:51 -29.99277 -51.16631 19 ft 29 kts 91°
2026-04-27 02:51 -29.99284 -51.16390 19 ft 29 kts 94°
2026-04-27 02:51 -29.99327 -51.16232 19 ft 8 kts 159°
2026-04-27 02:52 -29.99397 -51.16230 21 ft 14 kts 179°
2026-04-27 02:52 -29.99470 -51.16173 23 ft 12 kts 101°
2026-04-27 02:52 -29.99483 -51.16051 21 ft 16 kts 74°
2026-04-27 02:52 -29.99464 -51.15959 22 ft 5 kts 135°
2026-04-27 02:53 -29.99476 -51.15965 21 ft 3 kts 220°
2026-04-27 02:53 -29.99484 -51.16005 21 ft 18 kts 271°
2026-04-27 02:53 -29.99472 -51.16651 19 ft 133 kts 270°
2026-04-27 02:53 -29.99458 -51.17994 285 ft 194 kts 271°
2026-04-27 02:54 -29.99443 -51.19534 691 ft 196 kts 271°
2026-04-27 02:54 -29.99428 -51.21075 1090 ft 192 kts 271°
2026-04-27 02:54 -29.99410 -51.22183 1563 ft 206 kts 272°
2026-04-27 02:54 -29.99354 -51.23793 2999 ft 208 kts 272°
2026-04-27 02:55 -29.99027 -51.26007 4794 ft 218 kts 293°
2026-04-27 02:55 -29.98450 -51.27001 5698 ft 225 kts 309°
2026-04-27 02:55 -29.97117 -51.28009 6977 ft 240 kts 336°
2026-04-27 02:55 -29.95393 -51.28208 8237 ft 257 kts 355°
2026-04-27 02:56 -29.92972 -51.28070 9849 ft 268 kts 355°
2026-04-27 02:56 -29.91710 -51.27993 10666 ft 270 kts 355°
2026-04-27 02:56 -29.89798 -51.27890 11730 ft 283 kts 354°
2026-04-27 02:56 -29.87748 -51.27805 12431 ft 307 kts 354°
2026-04-27 02:57 -29.85525 -51.27723 13078 ft 332 kts 354°
2026-04-27 02:57 -29.83140 -51.27632 13723 ft 352 kts 354°
2026-04-27 02:57 -29.80672 -51.27524 14694 ft 357 kts 354°
2026-04-27 02:57 -29.78186 -51.27410 15774 ft 360 kts 354°
2026-04-27 02:58 -29.75668 -51.27300 16789 ft 365 kts 353°
2026-04-27 02:58 -29.73099 -51.27192 17784 ft 369 kts 352°
2026-04-27 02:58 -29.70517 -51.27024 18669 ft 379 kts 356°
2026-04-27 02:58 -29.67879 -51.26478 19614 ft 389 kts
2026-04-27 02:59 -29.65264 -51.25545 20548 ft 397 kts
2026-04-27 02:59 -29.62679 -51.24544 21439 ft 400 kts
2026-04-27 02:59 -29.60026 -51.23527 22351 ft 402 kts
2026-04-27 02:59 -29.57330 -51.22500 23260 ft 405 kts
2026-04-27 03:00 -29.54634 -51.21475 24050 ft 408 kts
2026-04-27 03:00 -29.51965 -51.20460 24772 ft 410 kts
2026-04-27 03:00 -29.49345 -51.19468 25446 ft 413 kts
2026-04-27 03:00 -29.46553 -51.18413 26053 ft 418 kts
2026-04-27 03:01 -29.43785 -51.17366 26777 ft 418 kts
2026-04-27 03:01 -29.40901 -51.16274 27409 ft 422 kts
2026-04-27 03:01 -29.38119 -51.15220 28077 ft 424 kts
2026-04-27 03:01 -29.35298 -51.14153 28627 ft 427 kts
2026-04-27 03:02 -29.32416 -51.13066 29189 ft 431 kts
2026-04-27 03:02 -29.29605 -51.12006 29798 ft 433 kts
2026-04-27 03:02 -29.26928 -51.10999 30247 ft 438 kts
2026-04-27 03:02 -29.24175 -51.09963 30646 ft 441 kts
2026-04-27 03:03 -29.21291 -51.08971 31161 ft 435 kts
2026-04-27 03:03 -29.15376 -51.07581 32127 ft 435 kts 358°
2026-04-27 03:03 -29.12398 -51.06898 32706 ft 435 kts 358°
2026-04-27 03:04 -29.09429 -51.06214 33250 ft 436 kts 357°
2026-04-27 03:04 -29.06433 -51.05522 33837 ft 435 kts 358°
2026-04-27 03:04 -29.03452 -51.04834 34354 ft 434 kts 357°
2026-04-27 03:04 -29.00456 -51.04143 34867 ft 433 kts 357°
2026-04-27 03:05 -28.97508 -51.03462 35394 ft 431 kts 357°
2026-04-27 03:05 -28.94618 -51.02796 35904 ft 429 kts 357°
2026-04-27 03:05 -28.91664 -51.02116 36427 ft 426 kts 357°
2026-04-27 03:05 -28.88778 -51.01453 36918 ft 425 kts 357°
2026-04-27 03:06 -28.85868 -51.00785 37402 ft 423 kts 357°
2026-04-27 03:06 -28.82988 -51.00124 37865 ft 422 kts 357°
2026-04-27 03:06 -28.80108 -50.99464 38295 ft 421 kts 357°
2026-04-27 03:06 -28.77251 -50.98810 38743 ft 419 kts 357°
2026-04-27 03:07 -28.74524 -50.98145 40560 ft 348 kts 356°
2026-04-27 03:07 -28.72444 -50.97546 43018 ft 301 kts 355°
2026-04-27 03:07 -28.70393 -50.96944 43638 ft 291 kts 354°
2026-04-27 03:07 -28.68375 -50.96448 42801 ft 314 kts 353°
2026-04-27 03:08 -28.66111 -50.96049 41951 ft 338 kts 351°
2026-04-27 03:08 -28.63795 -50.95760 41849 ft 341 kts 349°
2026-04-27 03:08 -28.61456 -50.95543 42239 ft 331 kts 348°
2026-04-27 03:08 -28.59218 -50.95390 42674 ft 321 kts 347°
2026-04-27 03:09 -28.57002 -50.95299 42905 ft 317 kts 345°
2026-04-27 03:09 -28.52636 -50.95344 42949 ft 317 kts 342°
2026-04-27 03:10 -28.48206 -50.95711 43064 ft 315 kts 340°
2026-04-27 03:10 -28.46035 -50.96005 43187 ft 313 kts 338°
2026-04-27 03:10 -28.43889 -50.96370 43307 ft 311 kts 336°
2026-04-27 03:11 -28.39670 -50.97315 43472 ft 308 kts 334°
2026-04-27 03:11 -28.35544 -50.98549 43616 ft 306 kts 331°
2026-04-27 03:12 -28.31441 -51.00100 43798 ft 303 kts 328°
2026-04-27 03:12 -28.27550 -51.01894 43933 ft 301 kts 325°
2026-04-27 03:12 -28.25656 -51.02890 44012 ft 300 kts 324°
2026-04-27 03:13 -28.23795 -51.03952 44088 ft 299 kts 322°
2026-04-27 03:13 -28.21978 -51.05075 44161 ft 298 kts 321°
2026-04-27 03:13 -28.20184 -51.06271 44232 ft 297 kts 320°
2026-04-27 03:13 -28.18440 -51.07521 44303 ft 297 kts 318°
2026-04-27 03:14 -28.16746 -51.08826 44376 ft 296 kts 317°
2026-04-27 03:14 -28.15075 -51.10205 44433 ft 296 kts 315°
2026-04-27 03:14 -28.13451 -51.11639 44495 ft 295 kts 314°
2026-04-27 03:14 -28.11883 -51.13120 44557 ft 295 kts 313°
2026-04-27 03:15 -28.10345 -51.14673 44615 ft 295 kts 311°
2026-04-27 03:15 -28.08887 -51.16244 44678 ft 294 kts 309°
2026-04-27 03:15 -28.07451 -51.17895 44720 ft 294 kts 308°
2026-04-27 03:15 -28.06066 -51.19596 44772 ft 294 kts 307°
2026-04-27 03:16 -28.04730 -51.21350 44829 ft 294 kts 305°
2026-04-27 03:16 -28.03451 -51.23143 44888 ft 294 kts 304°
2026-04-27 03:16 -28.02214 -51.25001 44934 ft 294 kts 302°
2026-04-27 03:16 -28.01043 -51.26886 44972 ft 294 kts 301°
2026-04-27 03:17 -27.99919 -51.28829 45024 ft 294 kts 300°
2026-04-27 03:17 -27.98871 -51.30776 45064 ft 295 kts 298°
2026-04-27 03:17 -27.97847 -51.32827 45115 ft 295 kts 297°
2026-04-27 03:17 -27.96913 -51.34850 45158 ft 295 kts 295°
2026-04-27 03:18 -27.96020 -51.36946 45210 ft 296 kts 294°
2026-04-27 03:18 -27.95187 -51.39076 45227 ft 297 kts 292°
2026-04-27 03:18 -27.94412 -51.41243 45271 ft 297 kts 291°
2026-04-27 03:18 -27.93692 -51.43467 45310 ft 298 kts 289°
2026-04-27 03:19 -27.93041 -51.45699 45358 ft 298 kts 288°
2026-04-27 03:19 -27.92463 -51.47918 45400 ft 299 kts 287°
2026-04-27 03:19 -27.91937 -51.50204 45441 ft 300 kts 285°
2026-04-27 03:20 -27.91080 -51.54839 45526 ft 302 kts 282°
2026-04-27 03:20 -27.90481 -51.59558 45598 ft 304 kts 279°
2026-04-27 03:21 -27.90147 -51.64310 45674 ft 307 kts 277°
2026-04-27 03:21 -27.90074 -51.69141 45761 ft 309 kts 274°
2026-04-27 03:22 -27.90267 -51.74012 45844 ft 311 kts 271°
2026-04-27 03:22 -27.90728 -51.78889 45920 ft 314 kts 268°
2026-04-27 03:23 -27.91457 -51.83778 45990 ft 317 kts 265°
2026-04-27 03:23 -27.92454 -51.88655 46067 ft 320 kts 263°
2026-04-27 03:24 -27.93716 -51.93504 46156 ft 323 kts 260°
2026-04-27 03:24 -27.95244 -51.98309 46276 ft 326 kts 257°
2026-04-27 03:25 -27.97030 -52.03044 46348 ft 329 kts 254°
2026-04-27 03:25 -27.98727 -52.06955 46406 ft 332 kts 252°
2026-04-27 03:26 -28.00985 -52.11535 46487 ft 335 kts 249°
2026-04-27 03:26 -28.03473 -52.15976 46571 ft 338 kts 246°
2026-04-27 03:27 -28.06220 -52.20323 46636 ft 342 kts 243°
2026-04-27 03:27 -28.09212 -52.24542 46716 ft 345 kts 241°
2026-04-27 03:28 -28.12435 -52.28609 46791 ft 349 kts 238°
2026-04-27 03:28 -28.15881 -52.32509 46849 ft 353 kts 235°
2026-04-27 03:29 -28.19559 -52.36249 46918 ft 357 kts 233°
2026-04-27 03:29 -28.23446 -52.39800 46979 ft 361 kts 230°
2026-04-27 03:30 -28.27539 -52.43157 47022 ft 366 kts 227°
2026-04-27 03:30 -28.31873 -52.46342 47075 ft 371 kts 225°
2026-04-27 03:31 -28.36333 -52.49268 47116 ft 375 kts 222°
2026-04-27 03:31 -28.41010 -52.51994 47152 ft 380 kts 219°
2026-04-27 03:32 -28.45826 -52.54472 47176 ft 385 kts 217°
2026-04-27 03:32 -28.50874 -52.56742 47216 ft 390 kts 214°
2026-04-27 03:33 -28.56039 -52.58742 47254 ft 395 kts 212°
2026-04-27 03:33 -28.61358 -52.60490 47292 ft 400 kts 209°
2026-04-27 03:34 -28.66808 -52.61972 47332 ft 405 kts 206°
2026-04-27 03:34 -28.72372 -52.63179 47395 ft 409 kts 204°
2026-04-27 03:35 -28.77997 -52.64100 47425 ft 415 kts 201°
2026-04-27 03:35 -28.83782 -52.64746 47440 ft 417 kts 199°
2026-04-27 03:35 -28.86667 -52.64948 47284 ft 414 kts 197°
2026-04-27 03:36 -28.89526 -52.65066 46935 ft 412 kts 196°
2026-04-27 03:36 -28.92403 -52.65107 46437 ft 412 kts 194°
2026-04-27 03:36 -28.95271 -52.65069 45916 ft 413 kts 193°
2026-04-27 03:36 -28.98137 -52.64950 45460 ft 412 kts 192°
2026-04-27 03:37 -29.00988 -52.64749 45063 ft 409 kts 191°
2026-04-27 03:37 -29.03816 -52.64463 44695 ft 406 kts 189°
2026-04-27 03:37 -29.06613 -52.64094 44262 ft 403 kts 188°
2026-04-27 03:37 -29.99134 -51.17436 21 ft 0 kts
2026-04-27 03:48 -29.99150 -51.17437 20 ft 4 kts 10°
2026-04-27 03:48 -29.99173 -51.17448 22 ft 4 kts 52°
2026-04-27 03:48 -29.99180 -51.17464 20 ft 0 kts 91°
2026-04-27 03:51 -29.99180 -51.17440 21 ft 13 kts 91°
2026-04-27 03:51 -29.99225 -51.17351 19 ft 14 kts 161°
2026-04-27 03:51 -29.99273 -51.17245 19 ft 20 kts 90°
2026-04-27 03:51 -29.99275 -51.17063 19 ft 25 kts 91°
2026-04-27 03:52 -29.99277 -51.16923 19 ft 28 kts 91°
2026-04-27 03:52 -29.99279 -51.16682 19 ft 32 kts 90°
2026-04-27 03:52 -29.99284 -51.16405 19 ft 35 kts 91°
2026-04-27 03:52 -29.99307 -51.16239 19 ft 5 kts 155°
2026-04-27 03:53 -29.99384 -51.16234 20 ft 16 kts 185°
2026-04-27 03:53 -29.99477 -51.16217 23 ft 7 kts 124°
2026-04-27 03:53 -29.99482 -51.16147 22 ft 18 kts 87°
2026-04-27 03:53 -29.99449 -51.15993 21 ft 14 kts 82°
2026-04-27 03:54 -29.99460 -51.15968 20 ft 2 kts 169°
2026-04-27 03:54 -29.99483 -51.15998 21 ft 8 kts 253°
2026-04-27 03:54 -29.99481 -51.16270 24 ft 84 kts 272°
2026-04-27 03:54 -29.99454 -51.17353 172 ft 166 kts 272°
2026-04-27 03:55 -29.99429 -51.18728 719 ft 161 kts 271°
2026-04-27 03:55 -29.99399 -51.19952 1066 ft 151 kts 273°
2026-04-27 03:55 -29.99356 -51.21199 1630 ft 160 kts 272°
2026-04-27 03:55 -29.99300 -51.22714 1986 ft 211 kts 272°
2026-04-27 03:56 -29.99264 -51.24424 3221 ft 215 kts 272°
2026-04-27 03:56 -29.98911 -51.26082 4747 ft 215 kts 295°
2026-04-27 03:56 -29.97960 -51.27425 6042 ft 227 kts 319°
2026-04-27 03:56 -29.96481 -51.28167 7303 ft 243 kts 344°
2026-04-27 03:57 -29.94753 -51.28179 8478 ft 259 kts 355°
2026-04-27 03:57 -29.92931 -51.28066 9750 ft 266 kts 355°
2026-04-27 03:57 -29.91072 -51.27957 10907 ft 271 kts 354°
2026-04-27 03:57 -29.89108 -51.27859 11881 ft 288 kts 353°
2026-04-27 03:58 -29.87019 -51.27781 12560 ft 313 kts 353°
2026-04-27 03:58 -29.84779 -51.27700 13163 ft 338 kts 353°
2026-04-27 03:58 -29.82367 -51.27606 13887 ft 354 kts 354°
2026-04-27 03:58 -29.79887 -51.27492 14929 ft 358 kts 353°
2026-04-27 03:59 -29.77385 -51.27377 15983 ft 361 kts 353°
2026-04-27 03:59 -29.74857 -51.27266 17028 ft 364 kts 353°
2026-04-27 03:59 -29.72311 -51.27160 17957 ft 370 kts 352°
2026-04-27 03:59 -29.69719 -51.26902 18826 ft 379 kts 358°
2026-04-27 04:00 -29.67100 -51.26238 19702 ft 392 kts
2026-04-27 04:00 -29.64485 -51.25250 20505 ft 399 kts
2026-04-27 04:00 -29.61844 -51.24231 21405 ft 401 kts
2026-04-27 04:00 -29.59189 -51.23215 22202 ft 406 kts
2026-04-27 04:01 -29.56535 -51.22202 23125 ft 407 kts
2026-04-27 04:01 -29.53832 -51.21173 23948 ft 410 kts
2026-04-27 04:01 -29.51115 -51.20141 24718 ft 411 kts
2026-04-27 04:01 -29.48390 -51.19108 25409 ft 414 kts
2026-04-27 04:02 -29.45655 -51.18074 26011 ft 417 kts
2026-04-27 04:02 -29.42876 -51.17025 26512 ft 422 kts
2026-04-27 04:02 -29.40087 -51.15970 27210 ft 423 kts
2026-04-27 04:02 -29.37285 -51.14909 27772 ft 427 kts
2026-04-27 04:03 -29.34446 -51.13836 28345 ft 430 kts
2026-04-27 04:03 -29.31608 -51.12762 28958 ft 432 kts
2026-04-27 04:03 -29.28734 -51.11679 29538 ft 436 kts
2026-04-27 04:03 -29.25838 -51.10587 30136 ft 438 kts
2026-04-27 04:04 -29.22930 -51.09500 30552 ft 442 kts
2026-04-27 04:04 -29.19971 -51.08637 31006 ft 435 kts 357°
2026-04-27 04:04 -29.16982 -51.07955 31533 ft 437 kts 357°
2026-04-27 04:04 -29.14006 -51.07271 32121 ft 437 kts 357°
2026-04-27 04:05 -29.11022 -51.06581 32677 ft 437 kts 357°
2026-04-27 04:05 -29.08041 -51.05892 33202 ft 438 kts 357°
2026-04-27 04:05 -29.05054 -51.05203 33746 ft 437 kts 357°
2026-04-27 04:05 -29.02090 -51.04520 34263 ft 437 kts 357°
2026-04-27 04:06 -28.99094 -51.03829 34771 ft 435 kts 357°
2026-04-27 04:06 -28.96171 -51.03155 35259 ft 434 kts 357°
2026-04-27 04:06 -28.93190 -51.02468 35754 ft 432 kts 357°
2026-04-27 04:07 -28.87336 -51.01123 36676 ft 431 kts 357°
2026-04-27 04:07 -28.84389 -51.00447 37111 ft 430 kts 357°
2026-04-27 04:07 -28.81470 -50.99775 37609 ft 429 kts 357°
2026-04-27 04:07 -28.78565 -50.99109 38031 ft 428 kts 357°
2026-04-27 04:08 -28.75638 -50.98435 38511 ft 425 kts 357°
2026-04-27 04:08 -28.72702 -50.97758 38899 ft 421 kts 357°
2026-04-27 04:08 -28.69989 -50.97103 40388 ft 383 kts 356°
2026-04-27 04:08 -28.67460 -50.96492 40841 ft 376 kts 356°
2026-04-27 04:09 -28.64817 -50.95894 39906 ft 397 kts 356°
2026-04-27 04:09 -28.62024 -50.95306 39038 ft 421 kts 356°
2026-04-27 04:09 -28.59250 -50.94663 40205 ft 372 kts 357°
2026-04-27 04:09 -28.56857 -50.94006 41685 ft 352 kts 357°
2026-04-27 04:10 -28.54408 -50.93357 40169 ft 378 kts 357°
2026-04-27 04:10 -28.51755 -50.92716 39093 ft 393 kts 357°
2026-04-27 04:10 -28.48953 -50.92064 37049 ft 419 kts 356°
2026-04-27 04:10 -28.46021 -50.91481 35072 ft 451 kts 358°
2026-04-27 04:11 -28.42919 -50.90847 34142 ft 452 kts 358°
2026-04-27 04:11 -28.39852 -50.90220 33492 ft 445 kts 358°
2026-04-27 04:11 -28.36849 -50.89573 33887 ft 414 kts 358°
2026-04-27 04:11 -28.34177 -50.88932 34576 ft 377 kts 358°
2026-04-27 04:12 -28.31736 -50.88290 35027 ft 352 kts 357°
2026-04-27 04:12 -28.30143 -50.87863 35343 ft 348 kts 356°
2026-04-27 04:12 -28.27049 -50.87183 35951 ft 342 kts 354°
2026-04-27 04:12 -28.24727 -50.86706 36438 ft 339 kts 354°
2026-04-27 04:13 -28.22421 -50.86218 36928 ft 337 kts 355°
2026-04-27 04:13 -28.20126 -50.85714 37432 ft 334 kts 355°
2026-04-27 04:13 -28.17907 -50.85201 38314 ft 316 kts 355°
2026-04-27 04:13 -28.15658 -50.84690 37447 ft 346 kts 355°
2026-04-27 04:14 -28.14078 -50.84358 37287 ft 358 kts 356°
2026-04-27 04:14 -28.10770 -50.83629 37208 ft 363 kts 356°
2026-04-27 04:14 -28.06648 -50.82665 36633 ft 373 kts 358°
2026-04-27 04:15 -28.04065 -50.82040 35668 ft 385 kts 358°
2026-04-27 04:15 -28.00529 -50.80953 34468 ft 426 kts 10°
2026-04-27 04:15 -27.97774 -50.79238 33624 ft 476 kts 21°
2026-04-27 04:15 -27.94970 -50.77117 33055 ft 485 kts 22°
2026-04-27 04:16 -27.90181 -50.73729 33423 ft 483 kts 19°
2026-04-27 04:16 -27.87319 -50.71887 34062 ft 477 kts 17°
2026-04-27 04:16 -27.84455 -50.70121 34894 ft 457 kts 16°
2026-04-27 04:17 -27.81729 -50.68441 35915 ft 442 kts 16°
2026-04-27 04:17 -27.79047 -50.66830 37059 ft 421 kts 15°
2026-04-27 04:17 -27.76413 -50.65267 37633 ft 412 kts 14°
2026-04-27 04:17 -27.73884 -50.63779 37468 ft 410 kts 14°
2026-04-27 04:18 -27.71378 -50.62307 37097 ft 416 kts 14°
2026-04-27 04:18 -27.68656 -50.60732 36502 ft 443 kts 15°
2026-04-27 04:18 -27.65891 -50.59106 36515 ft 454 kts 16°
2026-04-27 04:18 -27.63071 -50.57428 36310 ft 461 kts 17°
2026-04-27 04:19 -27.60250 -50.55734 36008 ft 462 kts 17°
2026-04-27 04:19 -27.57383 -50.54015 35118 ft 468 kts 17°
2026-04-27 04:19 -27.54466 -50.52261 34357 ft 468 kts 17°
2026-04-27 04:19 -27.51610 -50.50542 33662 ft 465 kts 17°
2026-04-27 04:20 -27.45901 -50.47180 33947 ft 471 kts 17°
2026-04-27 04:20 -27.40091 -50.43743 33735 ft 473 kts 18°
2026-04-27 04:21 -27.37181 -50.41989 33476 ft 472 kts 18°
2026-04-27 04:21 -27.34247 -50.40222 33213 ft 473 kts 18°
2026-04-27 04:21 -27.31342 -50.38476 32954 ft 474 kts 18°
2026-04-27 04:21 -27.28388 -50.36704 32692 ft 474 kts 18°
2026-04-27 04:22 -27.25479 -50.34960 32441 ft 474 kts 18°
2026-04-27 04:22 -27.22556 -50.33210 32188 ft 476 kts 18°
2026-04-27 04:22 -27.16679 -50.29715 32340 ft 477 kts 18°
2026-04-27 04:23 -27.10820 -50.26268 32236 ft 474 kts 18°
2026-04-27 04:23 -27.07870 -50.24522 32717 ft 462 kts 18°
2026-04-27 04:23 -27.04981 -50.22821 33137 ft 464 kts 17°
2026-04-27 04:24 -27.00238 -50.20026 33844 ft 439 kts 17°